Location: Pagani
(40.7500°N, 14.6167°E)
Time: 11:53:07
(UTC+00:00)

Cosmos 1805 - Pass Details

Date: 15 May 2026
Orbit: 411 x 414 km, 82.5° (Epoch: 7 June)

Event Time Altitude Azimuth Distance (km) Brightness Sun altitude
Rises 20:32:55 0° 353° (N) 2,371 7.6 -21.4°
Reaches altitude 10° 20:34:58 10° 355° (N) 1,501 6.4 -21.6°
Enters shadow 20:37:33 52° 6° (N) 522 3.4 -21.9°
